N1TKS Weather Reports


Display with metric or nautical units.
time (UTC)temp
F
wind
direction
speed
MPH
gust
MPH
rain 1hr
in
rain 24hr
in
rain mn
in
humidity
%
barometer
mb
20260510225236 61 63 1.0 2.0 0.00 0.01 0.01 85 1013.8
20260510225153 61 63 1.0 2.0 0.00 0.01 0.01 85 1013.8
20260510224653 61 63 0.0 0.0 0.00 0.02 0.01 85 1013.7
20260510224453 62 63 0.0 0.0 0.00 0.07 0.01 85 1013.7
20260510224441 62 63 1.0 2.0 0.00 0.08 0.01 86 1013.5
20260510224331 61 63 0.0 0.0 0.00 0.03 0.01 85 1013.8
20260510224153 61 63 0.0 0.0 0.00 0.03 0.01 85 1013.8
20260510223657 62 63 0.0 0.0 0.00 0.04 0.01 85 1013.7
20260510223153 62 63 0.0 0.0 0.00 0.06 0.01 85 1013.7
20260510222654 62 63 0.0 0.0 0.00 0.07 0.01 85 1013.7
20260510222155 62 63 1.0 2.0 0.00 0.08 0.01 86 1013.5
20260510222126 62 63 0.0 1.0 0.00 0.09 0.01 85 1013.4
20260510221653 62 63 0.0 1.0 0.00 0.09 0.01 85 1013.4
20260510221155 62 63 0.0 0.0 0.00 0.09 0.01 85 1013.4
20260510220654 63 63 0.0 0.0 0.00 0.11 0.01 84 1013.4
20260510220154 64 63 1.0 1.0 0.00 0.12 0.01 85 1013.5
20260510215653 64 63 0.0 2.0 0.00 0.15 0.01 86 1013.4
20260510214653 65 63 0.0 0.0 0.00 0.16 0.01 86 1013.4
20260510214153 64 63 0.0 0.0 0.00 0.16 0.01 85 1013.4
20260510214042 65 63 0.0 0.0 0.00 0.16 0.01 84 1013.1
20260510213155 65 63 0.0 0.0 0.00 0.16 0.01 84 1013.3
20260510212657 65 63 0.0 0.0 0.00 0.16 0.01 84 1013.3
20260510212155 65 63 0.0 0.0 0.00 0.16 0.01 83 1013.2
20260510211653 65 63 0.0 0.0 0.00 0.16 0.01 84 1013.1
20260510211603 65 63 0.0 0.0 0.00 0.16 0.01 83 1013.1
20260510211154 65 63 0.0 0.0 0.00 0.16 0.01 83 1013.1
20260510210852 65 63 0.0 0.0 0.00 0.17 0.01 81 1012.9
20260510210655 65 63 0.0 0.0 0.00 0.16 0.01 82 1013.0
20260510210155 65 63 0.0 0.0 0.00 0.17 0.01 81 1012.9
20260510205653 65 63 0.0 0.0 0.00 0.17 0.01 81 1012.9
20260510205614 65 63 0.0 0.0 0.00 0.18 0.01 79 1012.8
20260510205604 66 63 0.0 0.0 0.00 0.18 0.01 79 1012.8
20260510205156 65 63 0.0 0.0 0.00 0.17 0.01 80 1012.9
20260510204849 65 63 0.0 0.0 0.00 0.18 0.01 79 1012.8
20260510204653 65 63 0.0 0.0 0.00 0.18 0.01 79 1012.8
20260510204154 66 63 0.0 0.0 0.00 0.18 0.01 79 1012.8
20260510203204 68 63 0.0 0.0 0.00 0.21 0.01 75 1012.8
20260510203154 66 63 0.0 0.0 0.00 0.19 0.01 77 1012.7
20260510201654 68 63 0.0 0.0 0.00 0.21 0.01 75 1012.8
20260510201557 68 63 0.0 0.0 0.00 0.21 0.01 74 1012.9
20260510201157 68 63 0.0 0.0 0.00 0.21 0.01 74 1012.9
20260510200653 68 63 0.0 0.0 0.00 0.21 0.01 74 1012.9
20260510200438 68 63 0.0 0.0 0.00 0.21 0.01 75 1012.9
20260510195653 68 63 0.0 0.0 0.00 0.21 0.01 75 1012.9
20260510195154 67 63 1.0 2.0 0.00 0.21 0.01 74 1012.9
20260510194801 67 64 1.0 1.0 0.00 0.21 0.01 77 1012.9
20260510194656 67 64 1.0 1.0 0.00 0.21 0.01 77 1012.9
20260510194454 67 64 2.0 3.0 0.00 0.21 0.01 77 1012.9
20260510194355 67 64 2.0 3.0 0.00 0.21 0.01 77 1012.9
20260510194153 67 64 2.0 3.0 0.00 0.21 0.01 77 1012.9
20260510193238 66 60 1.0 2.0 0.00 0.22 0.01 78 1013.2
20260510193201 66 60 0.0 1.0 0.00 0.22 0.01 78 1013.0
20260510192653 66 60 1.0 2.0 0.00 0.22 0.01 78 1013.2
20260510192604 65 50 1.0 2.0 0.00 0.25 0.01 79 1013.3
20260510190654 65 50 1.0 2.0 0.00 0.25 0.01 79 1013.3
20260510190156 65 50 1.0 2.0 0.00 0.27 0.01 80 1013.3
20260510190047 63 50 1.0 2.0 0.00 0.29 0.01 81 1013.6
20260510185757 64 50 1.0 3.0 0.00 0.28 0.01 81 1013.4
20260510185655 64 50 1.0 3.0 0.00 0.28 0.01 81 1013.4
20260510185153 63 50 1.0 2.0 0.00 0.29 0.01 81 1013.6
20260510184829 63 92 0.0 2.0 0.00 0.29 0.01 82 1013.6
20260510184654 63 92 0.0 2.0 0.00 0.29 0.01 82 1013.6
20260510184612 63 92 1.0 3.0 0.00 0.30 0.01 82 1013.5
20260510184154 63 92 0.0 2.0 0.00 0.30 0.01 82 1013.6
20260510183653 63 92 1.0 3.0 0.00 0.30 0.01 82 1013.5
20260510182420 63 92 0.0 1.0 0.00 0.31 0.01 82 1013.5
20260510182153 63 92 0.0 1.0 0.00 0.31 0.01 82 1013.5
20260510181655 63 91 1.0 2.0 0.00 0.31 0.01 83 1013.5
20260510180653 63 97 1.0 3.0 0.00 0.31 0.01 84 1013.5
20260510180153 62 90 1.0 3.0 0.00 0.31 0.01 84 1013.5
20260510175657 62 82 2.0 3.0 0.00 0.31 0.01 84 1013.5
20260510175634 62 94 1.0 1.0 0.00 0.31 0.01 84 1013.5
20260510175153 61 83 2.0 3.0 0.00 0.31 0.01 84 1013.5
20260510174153 62 94 1.0 1.0 0.00 0.31 0.01 84 1013.5
20260510174133 62 95 2.0 3.0 0.00 0.31 0.01 84 1013.5
20260510173657 62 95 2.0 3.0 0.00 0.31 0.01 84 1013.5
20260510173153 61 54 1.0 2.0 0.00 0.31 0.01 85 1013.7
20260510172435 60 103 0.0 0.0 0.00 0.31 0.01 88 1013.8
20260510172153 61 94 3.0 3.0 0.00 0.31 0.01 85 1013.8
20260510171654 61 67 2.0 3.0 0.00 0.31 0.01 86 1013.7
20260510171248 60 101 2.0 6.0 0.00 0.31 0.01 87 1013.7
20260510171153 60 101 2.0 6.0 0.00 0.31 0.01 87 1013.7
20260510170654 60 103 0.0 0.0 0.00 0.31 0.01 87 1013.7
20260510165654 60 103 0.0 0.0 0.00 0.31 0.01 88 1013.8
20260510165248 60 107 2.0 3.0 0.00 0.31 0.01 88 1013.9
20260510165242 60 105 1.0 2.0 0.00 0.31 0.01 89 1014.0
20260510165233 59 45 1.0 3.0 0.00 0.31 0.01 89 1014.0
20260510165156 60 104 0.0 0.0 0.00 0.31 0.01 88 1013.9
20260510164653 60 107 2.0 3.0 0.00 0.31 0.01 88 1013.9
20260510164154 60 105 1.0 2.0 0.00 0.31 0.01 89 1014.0
20260510163654 59 45 1.0 3.0 0.00 0.31 0.01 89 1014.0
20260510162654 59 45 0.0 1.0 0.00 0.31 0.01 89 1014.0
20260510161153 57 45 0.0 0.0 0.00 0.31 0.01 89 1014.0
20260510155653 57 45 0.0 0.0 0.00 0.31 0.01 89 1014.1
20260510155154 57 45 0.0 0.0 0.00 0.31 0.01 89 1014.1
20260510154847 56 45 0.0 0.0 0.00 0.31 0.01 89 1014.3
20260510154303 56 45 0.0 0.0 0.00 0.31 0.01 89 1014.2
20260510154153 56 45 0.0 0.0 0.00 0.31 0.01 89 1014.2
20260510153344 57 45 0.0 0.0 0.00 0.31 0.01 89 1014.3
20260510153156 57 45 0.0 0.0 0.00 0.31 0.01 89 1014.3
20260510152653 56 45 0.0 0.0 0.00 0.31 0.01 89 1014.3
20260510152234 56 45 0.0 0.0 0.00 0.31 0.01 89 1014.3
20260510152153 56 45 0.0 0.0 0.00 0.31 0.01 89 1014.3
20260510151636 55 45 0.0 0.0 0.00 0.31 0.01 89 1014.3
20260510151243 56 45 0.0 0.0 0.00 0.31 0.01 89 1014.3
20260510151156 56 45 0.0 0.0 0.00 0.31 0.01 89 1014.3
20260510150654 55 45 0.0 0.0 0.00 0.31 0.01 89 1014.3
20260510145656 55 45 0.0 0.0 0.00 0.31 0.01 90 1014.3
20260510145154 55 45 0.0 0.0 0.00 0.31 0.01 90 1014.4
20260510144653 55 45 0.0 0.0 0.00 0.31 0.01 90 1014.3
20260510144440 54 45 0.0 0.0 0.00 0.31 0.01 89 1014.1
20260510144258 55 45 0.0 0.0 0.00 0.31 0.01 90 1014.3
20260510144153 55 45 0.0 0.0 0.00 0.31 0.01 90 1014.3
20260510143653 54 45 0.0 0.0 0.00 0.31 0.01 90 1014.3
20260510143153 54 45 0.0 0.0 0.00 0.31 0.01 89 1014.2
20260510142654 54 45 0.0 0.0 0.00 0.31 0.01 89 1014.1
20260510142520 54 45 0.0 0.0 0.00 0.31 0.01 90 1013.8
20260510141229 54 45 0.0 0.0 0.00 0.31 0.01 90 1013.9
20260510141153 54 45 0.0 0.0 0.00 0.31 0.01 90 1013.9
20260510140653 54 45 0.0 0.0 0.00 0.31 0.01 90 1013.9
20260510140155 54 45 0.0 3.0 0.00 0.31 0.01 90 1013.8
20260510135656 54 45 0.0 0.0 0.00 0.31 0.01 90 1013.9
20260510135153 54 45 0.0 0.0 0.00 0.31 0.01 90 1013.8
20260510134654 53 45 0.0 0.0 0.00 0.31 0.01 90 1013.9
20260510134153 53 45 0.0 0.0 0.00 0.31 0.01 90 1013.9
20260510134031 53 45 0.0 0.0 0.00 0.31 0.01 90 1013.6
20260510132654 53 45 0.0 2.0 0.00 0.31 0.01 90 1013.8
20260510132154 53 45 0.0 2.0 0.00 0.31 0.01 90 1013.7
20260510131155 53 45 0.0 0.0 0.00 0.31 0.01 90 1013.6
20260510130656 53 45 0.0 1.0 0.00 0.31 0.01 90 1013.6
20260510130154 53 45 0.0 1.0 0.00 0.31 0.01 90 1013.7
20260510125654 53 45 0.0 0.0 0.00 0.31 0.01 90 1013.7
20260510125154 53 45 0.0 0.0 0.00 0.31 0.01 90 1013.7
20260510124153 53 45 0.0 1.0 0.00 0.31 0.01 90 1013.5
20260510123654 53 45 0.0 0.0 0.00 0.31 0.01 90 1013.4
20260510123155 53 45 0.0 0.0 0.00 0.31 0.01 90 1013.3
20260510122653 53 45 0.0 0.0 0.00 0.31 0.01 90 1013.2
20260510122154 53 45 0.0 0.0 0.00 0.31 0.01 90 1013.1
20260510120659 52 45 1.0 1.0 0.00 0.31 0.01 90 1013.0
20260510120259 52 98 0.0 0.0 0.00 0.31 0.01 90 1012.8
20260510120154 52 45 2.0 3.0 0.00 0.31 0.01 90 1013.0
20260510115655 52 45 2.0 3.0 0.00 0.31 0.01 90 1013.0
20260510114657 52 69 0.0 0.0 0.00 0.31 0.01 90 1012.9
20260510114016 52 98 0.0 0.0 0.00 0.31 0.01 90 1012.8
20260510113753 52 98 0.0 0.0 0.00 0.31 0.01 90 1012.8
20260510113656 52 98 0.0 0.0 0.00 0.31 0.01 90 1012.8
20260510112658 52 40 0.0 0.0 0.00 0.31 0.01 90 1012.7
20260510112154 52 317 0.0 0.0 0.00 0.31 0.01 90 1012.6
20260510111730 52 318 0.0 0.0 0.00 0.31 0.01 90 1012.6
20260510111655 52 318 0.0 0.0 0.00 0.31 0.01 90 1012.6
20260510111154 52 317 0.0 1.0 0.00 0.31 0.01 90 1012.5
20260510105756 52 317 0.0 0.0 0.00 0.31 0.01 90 1012.6
20260510105652 52 317 0.0 0.0 0.00 0.31 0.01 90 1012.6
20260510105156 52 317 0.0 0.0 0.00 0.31 0.01 90 1012.6
20260510103153 52 317 0.0 0.0 0.00 0.31 0.01 90 1012.6
20260510100654 52 318 0.0 0.0 0.01 0.31 0.01 90 1012.5
20260510095653 52 318 0.0 0.0 0.01 0.31 0.01 90 1012.6
20260510095640 52 318 0.0 0.0 0.01 0.31 0.01 90 1012.9
20260510095630 52 318 0.0 0.0 0.01 0.31 0.01 90 1013.0
20260510095153 52 318 0.0 0.0 0.01 0.31 0.01 90 1012.8
20260510094656 52 318 0.0 0.0 0.01 0.31 0.01 90 1012.8
20260510094155 52 318 0.0 0.0 0.01 0.31 0.01 90 1012.8
20260510093303 52 318 0.0 0.0 0.01 0.31 0.01 90 1012.9
20260510093153 52 318 0.0 0.0 0.01 0.31 0.01 90 1012.9
20260510092655 52 318 0.0 0.0 0.01 0.31 0.01 90 1013.0
20260510092155 52 318 0.0 0.0 0.01 0.31 0.01 90 1013.0
20260510091653 52 318 0.0 0.0 0.00 0.30 0.00 90 1012.9
20260510090755 52 318 0.0 0.0 0.00 0.30 0.00 89 1012.9
20260510090653 52 318 0.0 0.0 0.00 0.30 0.00 89 1012.9
20260510085653 52 317 0.0 1.0 0.00 0.30 0.00 90 1013.0
20260510085155 52 317 0.0 0.0 0.00 0.30 0.00 90 1012.8
20260510084738 52 324 2.0 3.0 0.00 0.30 0.00 90 1012.9
20260510084654 52 324 2.0 3.0 0.00 0.30 0.00 90 1012.9
20260510084317 52 319 0.0 0.0 0.00 0.30 0.00 90 1012.9
20260510084153 52 319 0.0 0.0 0.00 0.30 0.00 90 1012.9
20260510083654 52 319 1.0 3.0 0.00 0.30 0.00 90 1012.8
20260510083154 52 319 1.0 2.0 0.00 0.30 0.00 90 1012.8
20260510082654 52 299 1.0 3.0 0.00 0.30 0.00 90 1012.9
20260510082023 52 299 0.0 0.0 0.00 0.30 0.00 90 1011.8
20260510080652 52 299 0.0 0.0 0.00 0.30 0.00 90 1012.0
20260510080153 52 299 0.0 1.0 0.00 0.30 0.00 90 1012.0
20260510075653 52 299 0.0 0.0 0.00 0.30 0.00 90 1011.9
20260510075155 52 299 0.0 0.0 0.00 0.30 0.00 90 1011.8
20260510074652 52 299 0.0 0.0 0.00 0.30 0.00 90 1011.9
20260510074402 52 299 0.0 0.0 0.00 0.30 0.00 90 1012.0
20260510074154 52 299 0.0 0.0 0.00 0.30 0.00 90 1012.0
20260510073654 52 299 0.0 0.0 0.00 0.30 0.00 90 1012.0
20260510073153 52 299 0.0 0.0 0.00 0.30 0.00 90 1012.0
20260510072154 52 299 0.0 0.0 0.00 0.30 0.00 90 1012.1
20260510071652 52 299 0.0 0.0 0.00 0.30 0.00 90 1012.1
20260510071307 52 299 0.0 0.0 0.00 0.30 0.00 90 1012.1
20260510071153 52 299 0.0 0.0 0.00 0.30 0.00 90 1012.1
20260510070410 52 299 0.0 2.0 0.00 0.30 0.00 89 1012.0
20260510070153 52 299 0.0 2.0 0.00 0.30 0.00 89 1012.0
20260510064247 52 299 0.0 0.0 0.00 0.30 0.00 89 1012.0
20260510064154 52 299 0.0 0.0 0.00 0.30 0.00 89 1012.0
20260510063746 52 299 1.0 1.0 0.00 0.30 0.00 89 1011.9
20260510063654 52 299 1.0 1.0 0.00 0.30 0.00 89 1011.9
20260510063346 52 299 0.0 2.0 0.00 0.30 0.00 89 1011.8
20260510063152 52 299 0.0 2.0 0.00 0.30 0.00 89 1011.8
20260510062318 52 299 0.0 0.0 0.00 0.30 0.00 90 1011.7
20260510062154 52 299 0.0 0.0 0.00 0.30 0.00 90 1011.7
20260510061654 52 299 0.0 0.0 0.00 0.30 0.00 90 1011.7
20260510061348 52 299 0.0 0.0 0.00 0.30 0.00 89 1011.7
20260510061219 53 299 0.0 0.0 0.00 0.30 0.00 89 1011.8
20260510061153 52 299 0.0 0.0 0.00 0.30 0.00 89 1011.7
20260510055358 53 299 0.0 0.0 0.00 0.30 0.00 89 1011.9
20260510055154 53 299 0.0 0.0 0.00 0.30 0.00 89 1011.9
20260510055013 53 299 0.0 0.0 0.00 0.30 0.00 89 1011.8
20260510054653 53 299 0.0 0.0 0.00 0.30 0.00 89 1011.8
20260510054350 53 299 0.0 0.0 0.00 0.30 0.00 89 1011.8
20260510054153 53 299 0.0 0.0 0.00 0.30 0.00 89 1011.8
20260510054031 53 299 0.0 0.0 0.00 0.30 0.00 90 1012.0
20260510053308 53 299 0.0 0.0 0.00 0.30 0.00 90 1011.9
20260510053153 53 299 0.0 0.0 0.00 0.30 0.00 90 1011.9
20260510052856 53 299 0.0 0.0 0.00 0.30 0.00 90 1011.9
20260510052654 53 299 0.0 0.0 0.00 0.30 0.00 90 1011.9
20260510051653 53 299 0.0 0.0 0.00 0.30 0.00 90 1012.0
20260510050828 53 299 0.0 0.0 0.00 0.30 0.00 90 1012.0
20260510050817 53 299 0.0 0.0 0.00 0.30 0.00 90 1012.1
20260510050653 53 299 0.0 0.0 0.00 0.30 0.00 90 1012.0
20260510050158 53 299 0.0 0.0 0.00 0.30 0.00 90 1012.1
20260510045654 53 299 0.0 0.0 0.00 0.30 0.00 90 1012.0
20260510043619 53 299 0.0 0.0 0.00 0.30 0.00 90 1011.9
20260510043153 53 299 0.0 0.0 0.00 0.30 0.00 90 1012.0
20260510042654 53 299 0.0 0.0 0.00 0.30 0.00 90 1012.0
20260510042154 53 299 0.0 0.0 0.00 0.30 0.00 90 1012.0
20260510041153 53 299 0.0 0.0 0.00 0.30 0.00 90 1011.9
20260510040739 53 299 0.0 0.0 0.00 0.30 0.00 90 1011.9
20260510040654 53 299 0.0 0.0 0.00 0.30 0.00 90 1011.9
20260510040152 53 299 0.0 0.0 0.00 0.30 0.00 89 1011.8
20260510035653 53 299 0.0 0.0 0.00 0.30 0.30 89 1011.7
20260510034653 53 299 0.0 0.0 0.00 0.30 0.30 89 1011.7
20260510033223 53 299 0.0 0.0 0.00 0.30 0.30 89 1011.6
20260510033154 53 299 0.0 0.0 0.00 0.30 0.30 89 1011.6
20260510031154 53 299 0.0 0.0 0.00 0.30 0.30 89 1011.5
20260510030653 53 299 0.0 0.0 0.00 0.30 0.30 89 1011.6
20260510025153 53 299 0.0 0.0 0.00 0.30 0.30 89 1011.6
20260510024933 52 299 0.0 0.0 0.00 0.30 0.30 89 1011.7
20260510024656 52 299 0.0 0.0 0.00 0.30 0.30 89 1011.7
20260510023154 52 299 0.0 0.0 0.00 0.30 0.30 90 1011.8
20260510022822 53 299 0.0 0.0 0.00 0.30 0.30 89 1011.6
20260510022813 53 299 0.0 0.0 0.00 0.30 0.30 89 1011.6
20260510022700 52 299 0.0 0.0 0.00 0.30 0.30 90 1011.8
20260510022201 52 299 0.0 0.0 0.00 0.30 0.30 89 1011.8
20260510021654 52 299 0.0 0.0 0.00 0.30 0.30 90 1011.7
20260510021155 52 299 0.0 0.0 0.00 0.30 0.30 90 1011.7
20260510020154 53 299 0.0 0.0 0.00 0.30 0.30 89 1011.6
20260510015825 53 299 0.0 0.0 0.00 0.30 0.30 89 1011.6
20260510015700 53 299 0.0 0.0 0.00 0.30 0.30 89 1011.6
20260510015626 53 299 0.0 0.0 0.00 0.30 0.30 89 1011.6
20260510015618 53 299 0.0 0.0 0.00 0.30 0.30 89 1011.6
20260510015154 53 299 0.0 0.0 0.00 0.30 0.30 89 1011.6
20260510014655 53 299 0.0 0.0 0.00 0.30 0.30 89 1011.6
20260510013451 53 299 0.0 0.0 0.00 0.30 0.30 89 1011.5
20260510013155 53 299 0.0 0.0 0.00 0.30 0.30 89 1011.5
20260510012857 53 299 0.0 0.0 0.00 0.30 0.30 89 1011.4
20260510012658 53 299 0.0 0.0 0.00 0.30 0.30 89 1011.4
20260510012200 53 299 0.0 0.0 0.00 0.30 0.30 89 1011.2
20260510011658 54 299 0.0 0.0 0.00 0.30 0.30 89 1011.2
20260510010655 54 299 0.0 0.0 0.00 0.30 0.30 89 1011.0
20260510010155 54 299 0.0 0.0 0.00 0.30 0.30 89 1011.1
20260510005654 54 299 0.0 0.0 0.00 0.30 0.30 89 1011.2
20260510003806 54 299 0.0 0.0 0.00 0.30 0.30 89 1011.0
20260510003655 54 299 0.0 0.0 0.00 0.30 0.30 89 1011.0
20260510002741 55 299 0.0 0.0 0.00 0.30 0.30 89 1011.0
20260510002656 55 299 0.0 0.0 0.00 0.30 0.30 89 1011.0
20260510002155 55 299 0.0 0.0 0.00 0.30 0.30 89 1011.0
20260510002024 56 299 0.0 0.0 0.00 0.30 0.30 89 1010.8
20260510001750 55 299 0.0 0.0 0.00 0.30 0.30 89 1011.0
20260510001655 55 299 0.0 0.0 0.00 0.30 0.30 89 1011.0
20260510001154 55 299 0.0 0.0 0.00 0.30 0.30 89 1010.9
20260510000655 55 299 0.0 0.0 0.00 0.30 0.30 89 1011.0
20260510000154 55 299 0.0 0.0 0.00 0.30 0.30 89 1010.8
20260509235655 56 299 0.0 0.0 0.00 0.30 0.30 89 1010.8
20260509234654 56 299 0.0 0.0 0.01 0.30 0.30 89 1010.9
20260509234155 56 299 0.0 0.0 0.02 0.30 0.30 89 1011.0
20260509233958 56 299 0.0 0.0 0.03 0.30 0.30 89 1011.0
20260509233656 56 299 0.0 0.0 0.03 0.30 0.30 89 1011.0
20260509233155 56 299 0.0 0.0 0.05 0.30 0.30 89 1011.0
20260509232338 56 299 0.0 0.0 0.07 0.30 0.30 89 1011.2
20260509232154 56 299 0.0 0.0 0.07 0.30 0.30 89 1011.2
20260509231626 56 299 0.0 0.0 0.14 0.30 0.30 89 1011.0
20260509231309 56 299 0.0 0.0 0.08 0.30 0.30 89 1011.0
20260509231232 56 299 0.0 0.0 0.08 0.30 0.30 89 1011.0
20260509231155 56 299 0.0 0.0 0.08 0.30 0.30 89 1011.0
20260509230821 56 299 0.0 0.0 0.10 0.30 0.30 89 1011.0
20260509230654 56 299 0.0 0.0 0.10 0.30 0.30 89 1011.0
20260509230428 56 299 0.0 0.0 0.11 0.30 0.30 89 1011.1
20260509230157 56 299 0.0 0.0 0.11 0.30 0.30 89 1011.1
20260509225843 56 299 0.0 0.0 0.14 0.30 0.30 89 1011.0
20260509225743 56 299 0.0 0.0 0.14 0.30 0.30 89 1011.0
20260509225655 56 299 0.0 0.0 0.14 0.30 0.30 89 1011.0